Powrót do katalogu

DELTA 2 DEB

LostHEO
NORAD 29041·DEBRIS·🇺🇸 United States

Wystrzelony Mar 25, 2000 z Vandenberg Space Force Base

Loading…

Następne Przeloty (najbliższe 24 godziny)

TLE

NieaktualneSource: Space-Track

Epoka: May 20, 2008, 03:57 UTC

1 29041U 00017F   08141.16474781 -.00000091 +00000-0 +00000-0 0  9997
2 29041 091.8679 209.3387 7617690 336.5583 002.3689 01.68921020021683

Śledź DELTA 2 DEB w czasie rzeczywistym z AllMySat

Download on the App Store